Weather History for KELZ - July, 2013

Change the Weather History Date:

Sunday, July 21, 2013

  Actual Average (KBFD) Record (KBFD)
Temperature  
Mean Temperature 70 °F 66 °F  
Max Temperature 81 °F 77 °F 95 °F (2011)
Min Temperature 60 °F 54 °F 38 °F (1966)
Degree Days  
Heating Degree Days 0 0  
Month to date heating degree days 1  
Since 1 June heating degree days 146  
Since 1 July heating degree days 1  
Cooling Degree Days 4 2  
Month to date cooling degree days 50  
Year to date cooling degree days 100  
Since 1 June cooling degree days 90  
Growing Degree Days 20 (Base 50)    
Moisture  
Dew Point 61 °F    
Average Humidity 86    
Maximum Humidity 100    
Minimum Humidity 50    
Precipitation  
Precipitation 0.00 in 0.13 in 2.61 in (1988)
Month to date precipitation 2.85  
Year to date precipitation 24.50  
Sea Level Pressure  
Sea Level Pressure 30.00 in    
Wind  
Wind Speed 1 mph (NE)    
Max Wind Speed 7 mph    
Max Gust Speed -    
Visibility 5 miles    
Events Fog    
T = Trace of Precipitation, MM = Missing Value Source: NWS Daily Summary

Daily Weather History Graph

Daily Weather History Graph

Search for Another Location

Airport or City:

Trip Planner

Search our weather history database for the weather conditions in past years. The results will help you decide how hot, cold, wet, or windy it might be!

Date:

Astronomy

Jul. 21, 2013 Rise Set
Actual Time 5:54 AM EDT 8:41 PM EDT
Civil Twilight 5:21 AM EDT 9:14 PM EDT
Nautical Twilight 4:40 AM EDT 9:55 PM EDT
Astronomical Twilight 3:53 AM EDT 10:42 PM EDT
Moon 7:37 PM EDT (7/21) 4:38 AM EDT (7/21)
Length of Visible Light 15h 52m
Length of Day
14h 46m
Waxing Gibbous, 98% of the Moon is Illuminated
Jul 21
Waxing Gibbous
Jul 22
Full
Jul 29
Last Quarter
Aug 6
New
Aug 14
First Quarter

Hourly Weather History & Observations

Time (EDT) Temp. Dew Point Humidity Pressure Visibility Wind Dir Wind Speed Gust Speed Precip Events Conditions
12:56 AM 64.9 °F 61.0 °F 87% 29.94 in 10.0 mi Calm Calm - N/A   Clear
1:56 AM 64.0 °F 60.1 °F 87% 29.95 in 10.0 mi NNW 4.6 mph - N/A   Clear
2:23 AM 62.6 °F 59.0 °F 88% 29.99 in 1.8 mi Calm Calm - N/A   Partly Cloudy
2:36 AM 60.8 °F 60.8 °F 100% 29.99 in 3.0 mi Calm Calm - N/A   Partly Cloudy
2:51 AM 62.6 °F 60.8 °F 94% 29.99 in 10.0 mi Calm Calm - N/A   Mostly Cloudy
2:56 AM 62.1 °F 60.1 °F 93% 29.96 in 10.0 mi Calm Calm - N/A   Mostly Cloudy
3:05 AM 62.6 °F 60.8 °F 94% 29.99 in 1.2 mi Calm Calm - N/A   Mostly Cloudy
3:25 AM 62.6 °F 60.8 °F 94% 29.99 in 0.5 mi Calm Calm - N/A Fog Fog
3:37 AM 62.6 °F 60.8 °F 94% 29.99 in 0.2 mi Calm Calm - N/A Fog Fog
3:45 AM 62.6 °F 60.8 °F 94% 29.99 in 0.2 mi Calm Calm - N/A Fog Fog
3:56 AM 62.1 °F 61.0 °F 96% 29.97 in 0.2 mi Calm Calm - N/A Fog Fog
4:04 AM 62.6 °F 60.8 °F 94% 30.00 in 0.8 mi Calm Calm - N/A   Overcast
4:07 AM 62.6 °F 60.8 °F 94% 30.00 in 1.2 mi Calm Calm - N/A   Overcast
4:12 AM 62.6 °F 60.8 °F 94% 30.00 in 0.8 mi Calm Calm - N/A   Overcast
4:21 AM 62.6 °F 60.8 °F 94% 30.00 in 0.2 mi Calm Calm - N/A Fog Fog
4:39 AM 62.6 °F 60.8 °F 94% 30.00 in 0.5 mi Calm Calm - N/A Fog Fog
4:45 AM 60.8 °F 60.8 °F 100% 30.00 in 1.5 mi Calm Calm - N/A   Scattered Clouds
4:47 AM 60.8 °F 60.8 °F 100% 30.00 in 3.0 mi Calm Calm - N/A   Partly Cloudy
4:56 AM 60.1 °F 59.0 °F 96% 29.98 in 2.5 mi Calm Calm - N/A   Clear
5:07 AM 60.8 °F 60.8 °F 100% 30.01 in 5.0 mi Calm Calm - N/A   Clear
5:18 AM 60.8 °F 60.8 °F 100% 30.00 in 1.5 mi Calm Calm - N/A   Clear
5:20 AM 60.8 °F 60.8 °F 100% 30.00 in 0.8 mi Calm Calm - N/A   Mist
5:30 AM 60.8 °F 59.0 °F 94% 30.00 in 0.2 mi Calm Calm - N/A Fog Fog
5:38 AM 60.8 °F 59.0 °F 94% 30.00 in 0.5 mi Calm Calm - N/A Fog Fog
5:46 AM 60.8 °F 59.0 °F 94% 30.00 in 0.2 mi Calm Calm - N/A Fog Fog
5:56 AM 60.1 °F 59.0 °F 96% 29.98 in 0.2 mi Calm Calm - N/A Fog Fog
6:56 AM 62.1 °F 61.0 °F 96% 30.00 in 0.2 mi Calm Calm - N/A Fog Fog
7:56 AM 62.1 °F 61.0 °F 96% 30.01 in 0.5 mi Calm Calm - N/A Fog Fog
8:03 AM 62.6 °F 60.8 °F 94% 30.04 in 2.0 mi Calm Calm - N/A   Overcast
8:18 AM 62.6 °F 60.8 °F 94% 30.04 in 1.5 mi Calm Calm - N/A   Overcast
8:23 AM 62.6 °F 60.8 °F 94% 30.04 in 3.0 mi Calm Calm - N/A   Mostly Cloudy
8:53 AM 64.4 °F 62.6 °F 94% 30.04 in 10.0 mi Calm Calm - N/A   Mostly Cloudy
8:56 AM 64.0 °F 62.1 °F 93% 30.02 in 10.0 mi Calm Calm - N/A   Mostly Cloudy
9:26 AM 66.2 °F 62.6 °F 88% 30.05 in 10.0 mi Calm Calm - N/A   Overcast
9:44 AM 68.0 °F 62.6 °F 83% 30.05 in 10.0 mi Calm Calm - N/A   Overcast
9:56 AM 69.1 °F 57.9 °F 68% 30.02 in 10.0 mi Calm Calm - N/A   Overcast
10:56 AM 73.0 °F 61.0 °F 66% 30.02 in 10.0 mi Variable 3.5 mph - N/A   Clear
11:56 AM 73.9 °F 60.1 °F 62% 30.03 in 10.0 mi Variable 4.6 mph - N/A   Scattered Clouds
12:56 PM 75.0 °F 60.1 °F 60% 30.02 in 10.0 mi North 3.5 mph - N/A   Overcast
1:56 PM 79.0 °F 60.1 °F 52% 30.01 in 10.0 mi Variable 3.5 mph - N/A   Mostly Cloudy
2:56 PM 79.0 °F 59.0 °F 50% 30.00 in 10.0 mi West 3.5 mph - N/A   Scattered Clouds
3:56 PM 75.9 °F 61.0 °F 60% 29.99 in 10.0 mi NNW 5.8 mph - N/A   Mostly Cloudy
4:56 PM 78.1 °F 59.0 °F 52% 29.99 in 10.0 mi Calm Calm - N/A   Scattered Clouds
5:56 PM 75.0 °F 62.1 °F 64% 29.99 in 10.0 mi Variable 3.5 mph - N/A   Scattered Clouds
6:56 PM 73.9 °F 62.1 °F 66% 29.99 in 10.0 mi NNW 4.6 mph - N/A   Mostly Cloudy
7:29 PM 71.6 °F 62.6 °F 73% 30.02 in 10.0 mi ENE 6.9 mph - N/A   Overcast
7:49 PM 71.6 °F 62.6 °F 73% 30.02 in 10.0 mi ENE 5.8 mph - N/A   Mostly Cloudy
7:56 PM 71.1 °F 62.1 °F 73% 30.00 in 10.0 mi ENE 5.8 mph - N/A   Partly Cloudy
8:56 PM 68.0 °F 62.1 °F 81% 30.01 in 10.0 mi ENE 5.8 mph - N/A   Overcast
9:56 PM 66.0 °F 61.0 °F 84% 30.02 in 10.0 mi East 3.5 mph - N/A   Clear
10:56 PM 64.9 °F 61.0 °F 87% 30.03 in 10.0 mi ENE 3.5 mph - N/A   Clear
11:56 PM 63.0 °F 60.1 °F 90% 30.03 in 10.0 mi East 4.6 mph - N/A   Clear